[[{"header":{"parameterUnit":"m.s-1","parameterCategory":2,"la1":30.2991,"la2":30.254,"lo1":-89.0895,"lo2":-89.0444,"dy":0.0017,"dx":0.0017,"nx":28,"ny":28,"refTime":"2024-06-30T03:00:00:Z","depth":"0","parameterNumber":2,"parameterNumberName":"U-component_of_CURRENTS"},"data":[0,0,0,0,0,0,0,0,0,0,0,0,0,0,0,0,0,0,0,0,0,0,0,0,0,0,0,0,0,0,0,0,0,0,0,0,0,0,0,0,0,0,0,0,0,0,0,0,0,0,0,0,0,0,0,0,0,0,0.2292,0.2293,0,0.2371,0.2371,0.2372,0.2299,0.2296,0.2294,0.2291,0.2274,0.2276,0.2278,0,0,0,0,0,0,0,0,0,0,0,0,0,0.2127,0.213,0.2292,0.2293,0.2295,0.2371,0.2371,0.2372,0.2299,0.2296,0.2293,0.229,0.2273,0.2276,0.2278,0,0,0,0,0,0,0,0,0,0,0,0,0,0.2197,0.2131,0.2291,0.2271,0.227,0.2371,0.2371,0.2372,0.23,0.2296,0.2292,0.2289,0.2273,0.2275,0.2278,0.2371,0,0,0.2287,0.2288,0,0,0,0,0,0,0,0,0.2193,0.2203,0.2272,0.2272,0.2272,0.2325,0.2307,0.2369,0.2301,0.2284,0.2291,0.2287,0.2288,0.229,0.2307,0.2371,0.237,0.2287,0.2289,0.229,0.2291,0,0,0,0,0,0,0,0.2188,0.2199,0.2318,0.2274,0.2274,0.2275,0.228,0.2319,0.2301,0.2285,0.2281,0.2298,0.2286,0.2305,0.2306,0.237,0.2287,0.229,0.2291,0.2292,0.2361,0.2361,0,0,0,0,0,0,0.2191,0.2195,0.2316,0.2321,0.2228,0.2281,0.2286,0.2308,0.2302,0.23,0.2302,0.2295,0.2302,0.2303,0.2305,0.2311,0.229,0.2293,0.2294,0.2361,0.2361,0.2361,0,0,0,0,0,0,0.2187,0.2201,0.2313,0.2263,0.2277,0.2288,0.2313,0.2312,0.2317,0.2317,0.231,0.2306,0.2299,0.2301,0.2299,0.2313,0.2294,0.2297,0.2361,0.2361,0.2361,0.2388,0,0,0,0,0,0,0.2182,0.2199,0.2219,0.2263,0.2281,0.2354,0.2317,0.2316,0.2337,0.2328,0.2321,0.2315,0.2296,0.2294,0.2301,0.2316,0.2299,0.236,0.2361,0.2361,0.2387,0.2389,0.2391,0,0,0,0,0,0.2176,0.2192,0.222,0.2235,0.2307,0.2355,0.2363,0.2355,0.2341,0.2345,0.232,0.2315,0.23,0.2297,0.2306,0.2321,0.236,0.2361,0.2361,0.2386,0.2389,0.2391,0,0,0,0,0,0,0.2128,0.2189,0.2218,0.2254,0.2305,0.2343,0.2346,0.2367,0.2362,0.2337,0.2329,0.2324,0.2327,0.2325,0.2322,0.2338,0.2327,0.2329,0.2343,0.2346,0.2348,0.2345,0.2301,0,0,0,0,0,0.2139,0.2157,0.2233,0.226,0.2283,0.2329,0.235,0.2356,0.2363,0.2356,0.2365,0.2352,0.2345,0.234,0.2343,0.237,0.2387,0.238,0.2382,0.2383,0.2385,0.2391,0.2394,0.2362,0.2362,0.2362,0,0,0.2119,0.2165,0.217,0.2251,0.228,0.2308,0.2327,0.2353,0.2365,0.236,0.2366,0.2373,0.2354,0.2359,0.2361,0.2353,0.2413,0.2384,0.2386,0.2386,0.2391,0.2394,0.2397,0.2362,0.2362,0.2362,0,0,0.209,0.2141,0.2148,0.2186,0.225,0.2288,0.2301,0.2361,0.2367,0.2405,0.238,0.239,0.2413,0.239,0.2381,0.2405,0.2427,0.2409,0.2418,0.2424,0.2427,0.2429,0.2509,0.2518,0.2405,0.2405,0.2406,0,0.2061,0.2098,0.2158,0.2179,0.2198,0.2276,0.2286,0.2324,0.2376,0.2379,0.2396,0.242,0.2423,0.2401,0.2405,0.2412,0.244,0.2412,0.2428,0.243,0.2432,0.2512,0.2522,0.2407,0.2407,0.2407,0.2406,0,0.2057,0.207,0.2071,0.2124,0.2162,0.2176,0.2248,0.2279,0.2324,0.2365,0.239,0.2417,0.2422,0.2436,0.2434,0.2445,0.2474,0.2435,0.2424,0.2437,0.2522,0.2531,0.2409,0.2408,0.2408,0.2408,0,0,0.2003,0.2054,0.2044,0.2057,0.2127,0.2157,0.2177,0.2226,0.2234,0.2316,0.2331,0.2366,0.2411,0.2405,0.2422,0.2443,0.2519,0.2455,0.2454,0.2541,0.2591,0.2667,0.2685,0.2477,0.2478,0.2478,0.2664,0,0.197,0.1979,0.2019,0.2017,0.2032,0.2086,0.211,0.216,0.2211,0.2254,0.2306,0.234,0.2389,0.2409,0.244,0.2502,0.2536,0.2476,0.2559,0.2563,0.2632,0.2695,0.2654,0.282,0.2674,0.2676,0.2677,0,0.1953,0.1963,0.1958,0.1974,0.1985,0.2003,0.204,0.2072,0.2132,0.2172,0.222,0.228,0.2363,0.2384,0.252,0.2483,0.2539,0.2588,0.2594,0.2656,0.2655,0.2771,0.2843,0.2723,0.2692,0.2691,0.2689,0,0.191,0.1908,0.1903,0.191,0.1961,0.1958,0.1984,0.2039,0.2081,0.2124,0.2179,0.2256,0.2352,0.2413,0.2583,0.2541,0.2739,0.2676,0.2797,0.2806,0.2784,0.2789,0.2749,0.2726,0.2726,0.2725,0.2725,0,0.187,0.1854,0.1879,0.1881,0.1893,0.1924,0.1949,0.1973,0.2032,0.2106,0.2151,0.2252,0.2362,0.2506,0.259,0.2788,0.2754,0.2832,0.2853,0.28,0.2805,0.2707,0.2639,0.2732,0.2731,0.2729,0.2728,0,0.1847,0.1842,0.1862,0.1886,0.1885,0.1909,0.1957,0.1982,0.2027,0.2123,0.2153,0.2297,0.2495,0.2624,0.2777,0.2843,0.2914,0.3018,0.3004,0.3018,0.2993,0.2929,0.287,0.2841,0.3177,0.318,0.3182,0,0.1844,0.1853,0.189,0.1898,0.191,0.1931,0.1956,0.199,0.2038,0.2184,0.225,0.2439,0.2605,0.2892,0.3024,0.3193,0.3039,0.3223,0.3108,0.3019,0.2961,0.2811,0.2778,0.3119,0.312,0.3122,0.3123,0,0.1859,0.1884,0.1902,0.1917,0.1932,0.1964,0.1994,0.2028,0.2106,0.2198,0.2349,0.2474,0.2787,0.2963,0.319,0.328,0.3086,0.3259,0.313,0.2901,0.2766,0.2739,0.3019,0.3135,0.3134,0.3133,0.3133,0.3132,0.1875,0.1903,0.1905,0.1924,0.1934,0.1941,0.1938,0.2008,0.2075,0.2178,0.237,0.2529,0.2815,0.314,0.3218,0.3277,0.3214,0.3191,0.3132,0.2996,0.2914,0.3277,0.3423,0.3423,0.3423,0.3424,0.3424,0,0.185,0.1854,0.1888,0.1868,0.1848,0.1873,0.1917,0.1909,0.1958,0.2148,0.2278,0.2559,0.2776,0.2969,0.3164,0.3126,0.3006,0.3044,0.2768,0.2753,0.3053,0.2992,0.3092,0.3093,0.3093,0.3093,0.3093,0.3093,0.1809,0.1795,0.1813,0.1744,0.1734,0.1677,0.168,0.1723,0.1823,0.1973,0.2125,0.2298,0.2597,0.2823,0.2878,0.2859,0.2663,0.2607,0.2571,0.2707,0.2712,0.2717,0.264,0.2665,0.2665,0.2201,0.2197,0.2194]},{"header":{"parameterUnit":"m.s-1","parameterCategory":2,"la1":30.2991,"la2":30.254,"lo1":-89.0895,"lo2":-89.0444,"dy":0.0017,"dx":0.0017,"nx":28,"ny":28,"refTime":"2024-06-30T03:00:00:Z","depth":"0","parameterNumber":3,"parameterNumberName":"V-component_of_CURRENTS"},"data":[0,0,0,0,0,0,0,0,0,0,0,0,0,0,0,0,0,0,0,0,0,0,0,0,0,0,0,0,0,0,0,0,0,0,0,0,0,0,0,0,0,0,0,0,0,0,0,0,0,0,0,0,0,0,0,0,0,0,0.0645,0.0645,0,0.0639,0.0639,0.0639,0.0629,0.0629,0.0628,0.0628,0.0661,0.0663,0.0664,0,0,0,0,0,0,0,0,0,0,0,0,0,0.0619,0.062,0.0645,0.0645,0.0645,0.0639,0.0639,0.0639,0.0629,0.0629,0.0628,0.0628,0.0661,0.0662,0.0664,0,0,0,0,0,0,0,0,0,0,0,0,0,0.0625,0.062,0.0645,0.0638,0.0637,0.0639,0.0639,0.0639,0.0629,0.0629,0.0628,0.0628,0.0661,0.0662,0.0664,0.0684,0,0,0.0669,0.067,0,0,0,0,0,0,0,0,0.0624,0.0626,0.0639,0.0639,0.0638,0.0633,0.0642,0.0655,0.0629,0.0634,0.0628,0.0628,0.0655,0.0657,0.0658,0.0685,0.0687,0.0669,0.0671,0.0671,0.0672,0,0,0,0,0,0,0,0.0624,0.0626,0.0644,0.0639,0.0638,0.0625,0.0626,0.0644,0.0649,0.0633,0.0632,0.063,0.0655,0.0657,0.0659,0.0687,0.0669,0.0671,0.0672,0.0673,0.0641,0.0639,0,0,0,0,0,0,0.0625,0.0626,0.0644,0.0644,0.0628,0.0626,0.0627,0.0636,0.0648,0.0648,0.063,0.0629,0.0654,0.0657,0.066,0.0619,0.0671,0.0673,0.0674,0.0643,0.0641,0.0639,0,0,0,0,0,0,0.0624,0.0627,0.0644,0.0633,0.0634,0.0627,0.0637,0.0636,0.0634,0.0644,0.0646,0.0628,0.0654,0.0658,0.0639,0.0623,0.0674,0.0675,0.0645,0.0642,0.064,0.0579,0,0,0,0,0,0,0.0624,0.0627,0.0635,0.0633,0.0634,0.0631,0.0638,0.0636,0.0633,0.0632,0.0644,0.0646,0.0654,0.0636,0.064,0.0626,0.0677,0.0648,0.0644,0.0641,0.0583,0.0575,0.0567,0,0,0,0,0,0.0623,0.0631,0.0636,0.0638,0.0646,0.063,0.0629,0.0624,0.0633,0.0623,0.0614,0.0646,0.0617,0.0635,0.0642,0.0628,0.0649,0.0645,0.0641,0.0587,0.0576,0.0567,0,0,0,0,0,0,0.0624,0.0631,0.0636,0.0647,0.0633,0.0628,0.0622,0.0624,0.0613,0.0614,0.0626,0.0626,0.06,0.0619,0.064,0.0604,0.0638,0.0635,0.0595,0.0585,0.0577,0.0602,0.0678,0,0,0,0,0,0.063,0.0638,0.0633,0.064,0.0634,0.0631,0.0627,0.0623,0.0612,0.0608,0.0612,0.0608,0.0589,0.0591,0.0583,0.0576,0.0601,0.0567,0.0559,0.0552,0.0573,0.0565,0.0559,0.0625,0.0625,0.0625,0,0,0.0635,0.0637,0.0644,0.0641,0.0634,0.0617,0.0627,0.0616,0.0604,0.0615,0.0598,0.0582,0.0577,0.0548,0.0541,0.0564,0.0543,0.0547,0.0541,0.0567,0.056,0.0554,0.0549,0.0622,0.0623,0.0623,0,0,0.064,0.0646,0.0652,0.0636,0.0622,0.061,0.0606,0.0595,0.059,0.0571,0.0559,0.0526,0.0528,0.0501,0.0493,0.044,0.0493,0.0442,0.0433,0.0423,0.0419,0.0415,0.0433,0.0432,0.0445,0.0445,0.0445,0,0.0639,0.0653,0.0647,0.0636,0.0622,0.0605,0.0594,0.0579,0.0562,0.0559,0.0558,0.0517,0.0503,0.0462,0.0429,0.0424,0.0444,0.0472,0.0415,0.0412,0.0409,0.0429,0.0428,0.0442,0.0442,0.0443,0.0443,0,0.0659,0.0648,0.0642,0.0624,0.0604,0.0588,0.0562,0.0544,0.0538,0.053,0.0496,0.0463,0.0449,0.0419,0.041,0.0375,0.0403,0.0399,0.0447,0.0399,0.0422,0.0423,0.0437,0.0438,0.0439,0.044,0,0,0.0688,0.0665,0.0658,0.0645,0.0598,0.0587,0.0549,0.0522,0.0519,0.0486,0.0488,0.0413,0.0415,0.0404,0.0381,0.036,0.0335,0.0377,0.0378,0.0408,0.0343,0.0329,0.0329,0.0327,0.0327,0.0327,0.0366,0,0.0696,0.0688,0.0669,0.0635,0.0616,0.0577,0.0554,0.0524,0.0503,0.0496,0.0456,0.0442,0.0405,0.0401,0.0369,0.0357,0.0335,0.0327,0.0375,0.0378,0.038,0.0327,0.0322,0.0353,0.0366,0.0366,0.0367,0,0.0711,0.0701,0.0688,0.0647,0.0641,0.0618,0.0584,0.0567,0.0533,0.0522,0.0491,0.048,0.0443,0.0419,0.0383,0.0388,0.0363,0.0343,0.0344,0.0361,0.0364,0.0402,0.0354,0.0229,0.0368,0.0368,0.0367,0,0.0724,0.0702,0.0701,0.0684,0.0642,0.0633,0.0616,0.0577,0.0582,0.0548,0.0561,0.0511,0.0523,0.0471,0.0437,0.0416,0.0417,0.0383,0.0342,0.0343,0.0365,0.0367,0.0216,0.0344,0.0344,0.0344,0.0344,0,0.071,0.0694,0.0717,0.0694,0.0703,0.0673,0.0678,0.0639,0.0636,0.0653,0.0596,0.0615,0.0539,0.0534,0.0471,0.043,0.0447,0.0345,0.0344,0.0341,0.034,0.0256,0.018,0.0346,0.0345,0.0345,0.0345,0,0.0675,0.0688,0.0678,0.0681,0.0692,0.0695,0.0713,0.0723,0.0715,0.0739,0.0739,0.0719,0.07,0.0629,0.0568,0.0495,0.0367,0.041,0.0425,0.0423,0.0234,0.0156,0.005,0.0012,0.036,0.036,0.036,0,0.0652,0.0653,0.0682,0.0692,0.0685,0.0714,0.0734,0.0742,0.0762,0.0808,0.083,0.083,0.0837,0.0756,0.0604,0.0493,0.0377,0.0411,0.0336,0.022,0.0133,0.0083,0.0055,0.0347,0.0347,0.0347,0.0347,0,0.0604,0.063,0.0631,0.0669,0.0694,0.0742,0.0779,0.0816,0.0852,0.0895,0.0959,0.0984,0.09,0.0796,0.0636,0.0536,0.0307,0.04,0.027,0.0097,0.0045,0.0012,0.0345,0.0345,0.0345,0.0345,0.0345,0.0345,0.0592,0.0594,0.0626,0.0652,0.0691,0.0759,0.0799,0.0871,0.0945,0.1047,0.1073,0.1163,0.1001,0.0772,0.0594,0.027,0.0264,0.0174,0.0091,0.0055,-0.001,0.0325,0.032,0.032,0.032,0.032,0.032,0,0.059,0.0598,0.0615,0.0656,0.0696,0.073,0.0826,0.0893,0.0997,0.1147,0.1236,0.1272,0.1015,0.0745,0.0307,0.0034,-0.0062,-0.011,-0.0195,-0.0206,0.0089,0.0058,0.0006,0.0007,0.0007,0.0007,0.0007,0.0007,0.0591,0.0607,0.0614,0.0666,0.0696,0.0775,0.0834,0.0951,0.1081,0.1306,0.1445,0.1544,0.1373,0.0487,-0.0093,-0.0239,-0.0436,-0.0496,-0.0565,-0.0395,-0.0376,-0.0357,-0.0405,-0.0553,-0.0554,-0.081,-0.0814,-0.0816]}],[{"header":{"parameterUnit":"m.s-1","parameterCategory":2,"la1":30.2991,"la2":30.254,"lo1":-89.0895,"lo2":-89.0444,"dy":0.0017,"dx":0.0017,"nx":28,"ny":28,"refTime":"2024-06-30T03:00:00:Z","depth":"2","parameterNumber":2,"parameterNumberName":"U-component_of_CURRENTS"},"data":[0,0,0,0,0,0,0,0,0,0,0,0,0,0,0,0,0,0,0,0,0,0,0,0,0,0,0,0,0,0,0,0,0,0,0,0,0,0,0,0,0,0,0,0,0,0,0,0,0,0,0,0,0,0,0,0,0,0,0.0296,0.0296,0,0.0301,0.0301,0.0301,0.0367,0.0369,0.037,0.0372,0.0383,0.0382,0.038,0,0,0,0,0,0,0,0,0,0,0,0,0,0.0333,0.0332,0.0296,0.0296,0.0296,0.0301,0.0301,0.0301,0.0367,0.0369,0.0371,0.0372,0.0383,0.0382,0.038,0,0,0,0,0,0,0,0,0,0,0,0,0,0.0326,0.0332,0.0296,0.0329,0.0332,0.0301,0.0301,0.0301,0.0366,0.0369,0.0371,0.0373,0.0384,0.0382,0.038,0.0321,0,0,0.0375,0.0374,0,0,0,0,0,0,0,0,0.0326,0.0325,0.0324,0.0327,0.033,0.0335,0.0318,0.0308,0.0366,0.0354,0.0372,0.0374,0.0365,0.0365,0.0362,0.0322,0.0322,0.0374,0.0373,0.0373,0.0372,0,0,0,0,0,0,0,0.0327,0.0325,0.0299,0.0324,0.0327,0.034,0.0341,0.0317,0.0347,0.0355,0.036,0.0358,0.0367,0.0363,0.0362,0.0322,0.0374,0.0373,0.0372,0.0371,0.0371,0.0372,0,0,0,0,0,0,0.0322,0.0325,0.0299,0.0299,0.0333,0.0337,0.0339,0.0332,0.0347,0.0351,0.0356,0.0361,0.0365,0.0364,0.0363,0.0358,0.0373,0.0371,0.037,0.037,0.0371,0.0373,0,0,0,0,0,0,0.0323,0.0319,0.0299,0.0312,0.0311,0.0334,0.0325,0.0331,0.0383,0.0348,0.0353,0.0409,0.0367,0.0365,0.0403,0.0357,0.037,0.0368,0.0369,0.0371,0.0372,0.0308,0,0,0,0,0,0,0.0324,0.0319,0.0355,0.0311,0.031,0.027,0.0323,0.0329,0.0374,0.0382,0.0393,0.0394,0.0369,0.0406,0.0401,0.0355,0.0367,0.0368,0.037,0.0372,0.0309,0.0307,0.0306,0,0,0,0,0,0.0325,0.0318,0.0357,0.0356,0.0343,0.0268,0.0267,0.0294,0.0375,0.0361,0.0424,0.0396,0.0415,0.0406,0.04,0.0352,0.0367,0.0369,0.0371,0.0309,0.0307,0.0306,0,0,0,0,0,0,0.0333,0.0323,0.0364,0.0356,0.0325,0.0279,0.0302,0.0325,0.0365,0.0419,0.0416,0.0417,0.043,0.0423,0.0415,0.0367,0.0382,0.0384,0.0337,0.0335,0.0334,0.0308,0.0366,0,0,0,0,0,0.0358,0.0359,0.0335,0.0326,0.0339,0.0346,0.0348,0.0351,0.0361,0.0386,0.0399,0.0428,0.0422,0.0414,0.0411,0.0383,0.0409,0.0353,0.0352,0.035,0.0331,0.0391,0.0392,0.0381,0.0381,0.038,0,0,0.0348,0.0351,0.035,0.0331,0.0345,0.0297,0.0354,0.0349,0.0309,0.0377,0.039,0.0433,0.0426,0.0398,0.0399,0.039,0.0366,0.0353,0.035,0.0332,0.0394,0.0395,0.0395,0.0382,0.0382,0.0382,0,0,0.0316,0.0356,0.0366,0.0371,0.0387,0.0308,0.032,0.0314,0.0336,0.0338,0.0388,0.0425,0.0413,0.0383,0.0369,0.0364,0.0375,0.037,0.0307,0.0366,0.0366,0.0367,0.0388,0.0391,0.0346,0.0346,0.0346,0,0.0315,0.0342,0.0344,0.038,0.0353,0.0316,0.028,0.026,0.026,0.0295,0.034,0.0377,0.0386,0.0327,0.0332,0.0348,0.0395,0.0302,0.036,0.0362,0.0364,0.0385,0.039,0.0343,0.0343,0.0343,0.0344,0,0.033,0.0365,0.037,0.0361,0.0289,0.0267,0.0198,0.0191,0.0207,0.0212,0.0242,0.0261,0.0296,0.0277,0.03,0.0293,0.0326,0.0367,0.0353,0.036,0.0384,0.0389,0.0339,0.034,0.0341,0.0341,0,0,0.0283,0.0359,0.0389,0.0401,0.0305,0.0235,0.0144,0.0057,0.0089,0.0087,0.0115,0.0099,0.0191,0.0184,0.0205,0.0214,0.0272,0.0298,0.0302,0.0297,0.0397,0.039,0.0395,0.0346,0.0348,0.0348,0.0401,0,0.0303,0.0334,0.0345,0.0286,0.024,0.0196,0.0117,0.0052,0.0019,0.0047,0.0058,0.0122,0.0121,0.0196,0.0188,0.0263,0.0288,0.0252,0.0409,0.0412,0.0388,0.0402,0.0375,0.0419,0.0407,0.0408,0.0409,0,0.0377,0.0326,0.0303,0.0263,0.0265,0.0233,0.0107,0.0034,0.0023,0.0108,0.0114,0.0142,0.0129,0.0187,0.0222,0.0215,0.0318,0.0351,0.0356,0.0372,0.0416,0.0417,0.043,0.0418,0.0418,0.0417,0.0416,0,0.0319,0.0345,0.0294,0.0299,0.0199,0.024,0.0164,0.0096,0.0102,0.0157,0.0228,0.0196,0.0271,0.0289,0.0323,0.0331,0.0376,0.0409,0.047,0.047,0.0482,0.0481,0.0497,0.0497,0.0497,0.0497,0.0497,0,0.0362,0.0377,0.0341,0.033,0.0332,0.0247,0.0263,0.0293,0.0286,0.0295,0.0292,0.0305,0.033,0.0312,0.0327,0.0378,0.0399,0.0451,0.0488,0.0459,0.0455,0.0488,0.0487,0.0499,0.0498,0.0498,0.0498,0,0.0433,0.0427,0.0364,0.0293,0.0335,0.033,0.0389,0.0371,0.0428,0.0417,0.0461,0.0466,0.0493,0.043,0.0498,0.045,0.0462,0.0509,0.044,0.0467,0.0513,0.0507,0.0567,0.0567,0.0568,0.0568,0.0568,0,0.0474,0.0434,0.0362,0.0352,0.0405,0.0418,0.0423,0.0487,0.0432,0.047,0.0441,0.0524,0.0531,0.0547,0.0523,0.0527,0.0555,0.0517,0.0521,0.0492,0.0522,0.0517,0.0511,0.051,0.051,0.051,0.051,0,0.0434,0.0451,0.0399,0.038,0.0429,0.0405,0.042,0.0442,0.0415,0.0489,0.0514,0.0546,0.0591,0.0588,0.0606,0.0574,0.0482,0.0515,0.0533,0.049,0.0442,0.047,0.0466,0.0507,0.0507,0.0508,0.0508,0.0508,0.0408,0.0397,0.0347,0.039,0.0433,0.0387,0.038,0.0362,0.0393,0.0434,0.0468,0.0558,0.0513,0.0559,0.0545,0.056,0.0572,0.0531,0.053,0.0531,0.0509,0.0463,0.0526,0.0526,0.0526,0.0527,0.0527,0,0.0303,0.0337,0.0331,0.0325,0.0371,0.0443,0.0358,0.0302,0.0356,0.0422,0.0516,0.0476,0.0505,0.0535,0.0577,0.0547,0.0523,0.0531,0.0514,0.0514,0.0515,0.0492,0.0505,0.0506,0.0506,0.0507,0,0,0.0221,0.0184,0.021,0.0269,0.0353,0.0359,0.034,0.0314,0.0312,0.0403,0.0502,0.0485,0.05,0.0481,0.0465,0.0544,0.0526,0.0519,0.0528,0.0508,0.051,0.0497,0.0459,0,0,0,0,0]},{"header":{"parameterUnit":"m.s-1","parameterCategory":2,"la1":30.2991,"la2":30.254,"lo1":-89.0895,"lo2":-89.0444,"dy":0.0017,"dx":0.0017,"nx":28,"ny":28,"refTime":"2024-06-30T03:00:00:Z","depth":"2","parameterNumber":3,"parameterNumberName":"V-component_of_CURRENTS"},"data":[0,0,0,0,0,0,0,0,0,0,0,0,0,0,0,0,0,0,0,0,0,0,0,0,0,0,0,0,0,0,0,0,0,0,0,0,0,0,0,0,0,0,0,0,0,0,0,0,0,0,0,0,0,0,0,0,0,0,-0.0472,-0.0473,0,-0.0465,-0.0464,-0.0463,-0.0406,-0.0406,-0.0405,-0.0405,-0.0406,-0.0406,-0.0407,0,0,0,0,0,0,0,0,0,0,0,0,0,-0.0393,-0.0395,-0.0472,-0.0473,-0.0474,-0.0465,-0.0464,-0.0463,-0.0406,-0.0406,-0.0405,-0.0405,-0.0406,-0.0406,-0.0407,0,0,0,0,0,0,0,0,0,0,0,0,0,-0.0401,-0.0395,-0.0472,-0.0452,-0.0451,-0.0465,-0.0464,-0.0462,-0.0407,-0.0406,-0.0405,-0.0405,-0.0405,-0.0406,-0.0407,-0.0424,0,0,-0.0409,-0.0409,0,0,0,0,0,0,0,0,-0.0401,-0.0403,-0.0454,-0.0454,-0.0453,-0.0445,-0.0437,-0.0453,-0.0407,-0.0413,-0.0405,-0.0404,-0.0427,-0.0426,-0.0411,-0.0424,-0.0424,-0.0409,-0.0409,-0.0409,-0.041,0,0,0,0,0,0,0,-0.04,-0.0403,-0.0459,-0.0456,-0.0455,-0.0429,-0.0429,-0.0438,-0.0416,-0.0412,-0.041,-0.0426,-0.0425,-0.041,-0.0411,-0.0424,-0.0409,-0.0409,-0.041,-0.041,-0.0384,-0.0383,0,0,0,0,0,0,-0.0426,-0.0403,-0.0459,-0.0459,-0.0436,-0.0432,-0.0431,-0.0439,-0.0415,-0.0414,-0.0427,-0.0424,-0.0409,-0.041,-0.0411,-0.0385,-0.0409,-0.041,-0.041,-0.0385,-0.0384,-0.0382,0,0,0,0,0,0,-0.0424,-0.043,-0.046,-0.0439,-0.0443,-0.0436,-0.0445,-0.044,-0.0425,-0.0429,-0.0425,-0.0418,-0.0409,-0.041,-0.0406,-0.0387,-0.041,-0.0411,-0.0386,-0.0384,-0.0383,-0.0364,0,0,0,0,0,0,-0.0421,-0.0429,-0.0437,-0.0441,-0.0445,-0.0459,-0.0446,-0.0441,-0.0441,-0.0436,-0.042,-0.0419,-0.0409,-0.0405,-0.0407,-0.0388,-0.0411,-0.0388,-0.0385,-0.0383,-0.0366,-0.0362,-0.0358,0,0,0,0,0,-0.0418,-0.0423,-0.0437,-0.0444,-0.0458,-0.046,-0.0457,-0.0443,-0.0442,-0.0427,-0.0417,-0.042,-0.0393,-0.0406,-0.0408,-0.0388,-0.0389,-0.0386,-0.0384,-0.0367,-0.0363,-0.0358,0,0,0,0,0,0,-0.0378,-0.042,-0.0434,-0.0449,-0.0457,-0.0454,-0.0436,-0.0449,-0.0428,-0.0411,-0.042,-0.0417,-0.0403,-0.0402,-0.0416,-0.0372,-0.0386,-0.0384,-0.0373,-0.0368,-0.0365,-0.0374,-0.0412,0,0,0,0,0,-0.0384,-0.0396,-0.0432,-0.0434,-0.0438,-0.0442,-0.0442,-0.0435,-0.0428,-0.0417,-0.0413,-0.0399,-0.0395,-0.0388,-0.0378,-0.0368,-0.0377,-0.0351,-0.0347,-0.0344,-0.0351,-0.0345,-0.0341,-0.0374,-0.0374,-0.0374,0,0,-0.0353,-0.0392,-0.0387,-0.0428,-0.0419,-0.0423,-0.0434,-0.0418,-0.0418,-0.0424,-0.0398,-0.0393,-0.0391,-0.0366,-0.0358,-0.0362,-0.0338,-0.0341,-0.0339,-0.0347,-0.0342,-0.0339,-0.0336,-0.0373,-0.0373,-0.0373,0,0,-0.0314,-0.0343,-0.0342,-0.0332,-0.035,-0.039,-0.0394,-0.0392,-0.038,-0.0383,-0.0372,-0.0361,-0.036,-0.0339,-0.0339,-0.0314,-0.0323,-0.0301,-0.0287,-0.028,-0.0278,-0.0276,-0.0285,-0.0284,-0.0293,-0.0293,-0.0293,0,-0.0284,-0.0294,-0.0335,-0.0314,-0.0324,-0.0381,-0.0376,-0.0374,-0.037,-0.0367,-0.037,-0.0354,-0.035,-0.0329,-0.0309,-0.0307,-0.0309,-0.0307,-0.0277,-0.0275,-0.0274,-0.0283,-0.0283,-0.0292,-0.0292,-0.0292,-0.0292,0,-0.0223,-0.0224,-0.0206,-0.0237,-0.0266,-0.0246,-0.0292,-0.029,-0.0327,-0.034,-0.0326,-0.0316,-0.0314,-0.0296,-0.0302,-0.0274,-0.0281,-0.0279,-0.0293,-0.0269,-0.0281,-0.028,-0.029,-0.029,-0.0291,-0.0291,0,0,-0.0184,-0.0175,-0.0157,-0.017,-0.0215,-0.0238,-0.0249,-0.03,-0.0305,-0.0298,-0.0297,-0.0285,-0.029,-0.0288,-0.0275,-0.0258,-0.0249,-0.026,-0.026,-0.0278,-0.0243,-0.0213,-0.021,-0.0238,-0.0237,-0.0237,-0.0256,0,-0.0131,-0.01,-0.012,-0.0119,-0.0143,-0.0175,-0.0198,-0.0235,-0.0283,-0.0281,-0.0275,-0.0276,-0.0286,-0.0277,-0.0265,-0.0251,-0.0246,-0.0245,-0.0255,-0.0256,-0.024,-0.0208,-0.0254,-0.0271,-0.0256,-0.0256,-0.0256,0,-0.0057,-0.0095,-0.0078,-0.0118,-0.0121,-0.0123,-0.0203,-0.0225,-0.0244,-0.0238,-0.0244,-0.0269,-0.0251,-0.0258,-0.0249,-0.0246,-0.0251,-0.0241,-0.0241,-0.0223,-0.0225,-0.0291,-0.0272,-0.0255,-0.0255,-0.0255,-0.0256,0,-0.0076,-0.0045,-0.0065,-0.0051,-0.012,-0.0106,-0.0154,-0.0206,-0.022,-0.0222,-0.0226,-0.0229,-0.0224,-0.0228,-0.0237,-0.0247,-0.0215,-0.0233,-0.0216,-0.0215,-0.0262,-0.0265,-0.0234,-0.0233,-0.0233,-0.0233,-0.0233,0,-0.0039,-0.0037,-0.0044,-0.0058,-0.0076,-0.0117,-0.0138,-0.0144,-0.0157,-0.0171,-0.0213,-0.0198,-0.0216,-0.0221,-0.0227,-0.0212,-0.022,-0.0212,-0.0211,-0.0255,-0.0256,-0.0249,-0.025,-0.0234,-0.0234,-0.0234,-0.0234,0,-0.0056,-0.0025,-0.0068,-0.0105,-0.009,-0.0117,-0.0108,-0.0122,-0.0133,-0.0144,-0.0146,-0.0167,-0.0176,-0.0202,-0.0191,-0.0197,-0.0183,-0.0178,-0.0231,-0.0234,-0.0201,-0.0201,-0.0185,-0.0184,-0.0183,-0.0183,-0.0182,0,-0.0057,-0.0081,-0.0114,-0.01,-0.0095,-0.0105,-0.0104,-0.0098,-0.0117,-0.012,-0.0122,-0.0138,-0.0106,-0.0089,-0.0126,-0.0139,-0.0153,-0.0194,-0.022,-0.0192,-0.0193,-0.0194,-0.0196,-0.0288,-0.0288,-0.0288,-0.0288,0,-0.0131,-0.0124,-0.0178,-0.0149,-0.0113,-0.0111,-0.0099,-0.0097,-0.0113,-0.0062,-0.0003,0.0037,0.0,-0.003,-0.0082,-0.0099,-0.0196,-0.0197,-0.0153,-0.0275,-0.0285,-0.0286,-0.0285,-0.029,-0.029,-0.029,-0.029,-0.029,-0.0176,-0.021,-0.022,-0.0186,-0.0128,-0.0097,-0.0084,-0.0042,0.0007,0.01,0.0114,0.0199,0.0017,-0.0025,-0.0096,-0.0179,-0.0166,-0.0227,-0.0229,-0.0229,-0.022,-0.0225,-0.022,-0.022,-0.0219,-0.0219,-0.0218,0,-0.0204,-0.0212,-0.0227,-0.0181,-0.01,-0.006,-0.0057,0.0001,0.0125,0.0184,0.0332,0.0202,0.0124,-0.0042,-0.0171,-0.0238,-0.0257,-0.027,-0.0323,-0.0321,-0.0319,-0.0315,-0.034,-0.0341,-0.0341,-0.0341,0,0,-0.0212,-0.0231,-0.0256,-0.0138,-0.0064,0.0021,0.0042,0.0186,0.0226,0.0361,0.0391,0.0398,0.0108,-0.0042,-0.0192,-0.0259,-0.0252,-0.0258,-0.0158,-0.0204,-0.02,-0.03,-0.0292,0,0,0,0,0]}],[{"header":{"parameterUnit":"m.s-1","parameterCategory":2,"la1":30.2991,"la2":30.254,"lo1":-89.0895,"lo2":-89.0444,"dy":0.0017,"dx":0.0017,"nx":28,"ny":28,"refTime":"2024-06-30T03:00:00:Z","depth":"4","parameterNumber":2,"parameterNumberName":"U-component_of_CURRENTS"},"data":[0,0,0,0,0,0,0,0,0,0,0,0,0,0,0,0,0,0,0,0,0,0,0,0,0,0,0,0,0,0,0,0,0,0,0,0,0,0,0,0,0,0,0,0,0,0,0,0,0,0,0,0,0,0,0,0,0,0,-0.0367,-0.0366,0,-0.0345,-0.0345,-0.0345,-0.0374,-0.0375,-0.0376,-0.0377,-0.0497,-0.0499,-0.0501,0,0,0,0,0,0,0,0,0,0,0,0,0,-0.038,-0.038,-0.0367,-0.0366,-0.0366,-0.0345,-0.0345,-0.0345,-0.0374,-0.0375,-0.0377,-0.0378,-0.0496,-0.0499,-0.0501,0,0,0,0,0,0,0,0,0,0,0,0,0,-0.0368,-0.038,-0.0367,-0.0378,-0.0379,-0.0345,-0.0345,-0.0345,-0.0374,-0.0375,-0.0377,-0.0378,-0.0495,-0.0498,-0.0502,-0.049,0,0,-0.0512,-0.0513,0,0,0,0,0,0,0,0,-0.0369,-0.0367,-0.0377,-0.0377,-0.0378,-0.0364,-0.0393,-0.04,-0.0373,-0.0376,-0.0377,-0.0379,-0.0464,-0.047,-0.046,-0.0496,-0.0501,-0.0512,-0.0514,-0.0515,-0.0516,0,0,0,0,0,0,0,-0.037,-0.0368,-0.0358,-0.0376,-0.0377,-0.0366,-0.0367,-0.0394,-0.0414,-0.0376,-0.0378,-0.0375,-0.0466,-0.0457,-0.0464,-0.0503,-0.0512,-0.0515,-0.0517,-0.0518,-0.0631,-0.0632,0,0,0,0,0,0,-0.0373,-0.0369,-0.0359,-0.0357,-0.0377,-0.0365,-0.0366,-0.0367,-0.0411,-0.0418,-0.0374,-0.0376,-0.0451,-0.046,-0.0469,-0.0555,-0.0515,-0.0518,-0.052,-0.063,-0.0631,-0.0632,0,0,0,0,0,0,-0.0374,-0.0373,-0.036,-0.0363,-0.036,-0.0364,-0.0364,-0.0366,-0.0388,-0.0407,-0.0418,-0.0398,-0.0452,-0.0464,-0.0527,-0.0556,-0.052,-0.0523,-0.0628,-0.063,-0.0631,-0.0666,0,0,0,0,0,0,-0.0374,-0.0373,-0.0377,-0.0363,-0.036,-0.0359,-0.0363,-0.0364,-0.0382,-0.0386,-0.0432,-0.0442,-0.0454,-0.0522,-0.053,-0.056,-0.0525,-0.0627,-0.0629,-0.0631,-0.0663,-0.0668,-0.0673,0,0,0,0,0,-0.0375,-0.0375,-0.0378,-0.0377,-0.0366,-0.0359,-0.0357,-0.0364,-0.0382,-0.039,-0.0433,-0.0442,-0.054,-0.0526,-0.0535,-0.0567,-0.0626,-0.0629,-0.0631,-0.0661,-0.0667,-0.0672,0,0,0,0,0,0,-0.0378,-0.0377,-0.038,-0.0379,-0.0378,-0.0365,-0.0366,-0.0378,-0.0412,-0.0426,-0.0459,-0.0472,-0.0537,-0.0545,-0.0529,-0.0603,-0.0583,-0.0587,-0.0603,-0.0609,-0.0613,-0.0592,-0.0528,0,0,0,0,0,-0.038,-0.0386,-0.038,-0.0381,-0.038,-0.038,-0.038,-0.0386,-0.0408,-0.0424,-0.0465,-0.0506,-0.0545,-0.0574,-0.0604,-0.0647,-0.0622,-0.0672,-0.0676,-0.068,-0.0669,-0.0655,-0.0656,-0.064,-0.064,-0.0639,0,0,-0.038,-0.0381,-0.0384,-0.0383,-0.038,-0.0371,-0.0385,-0.0389,-0.0397,-0.0434,-0.0481,-0.0528,-0.056,-0.061,-0.0639,-0.0628,-0.0673,-0.0683,-0.0686,-0.0673,-0.0657,-0.0658,-0.066,-0.0641,-0.0641,-0.0641,0,0,-0.0372,-0.0385,-0.0382,-0.039,-0.0391,-0.0379,-0.039,-0.04,-0.0424,-0.0471,-0.0501,-0.0554,-0.0627,-0.064,-0.0658,-0.0701,-0.0698,-0.0737,-0.0747,-0.0734,-0.0734,-0.0734,-0.0704,-0.0701,-0.0739,-0.0739,-0.0739,0,-0.0371,-0.0372,-0.0379,-0.0382,-0.0385,-0.0388,-0.0383,-0.0394,-0.0433,-0.0461,-0.0496,-0.0586,-0.0624,-0.0658,-0.0695,-0.0708,-0.0709,-0.0725,-0.0738,-0.0737,-0.0737,-0.0705,-0.0702,-0.0741,-0.0741,-0.074,-0.074,0,-0.036,-0.037,-0.0371,-0.0371,-0.0369,-0.0374,-0.038,-0.0415,-0.0455,-0.0468,-0.054,-0.0586,-0.0648,-0.0671,-0.0712,-0.074,-0.0743,-0.0745,-0.0719,-0.074,-0.0706,-0.0702,-0.0744,-0.0743,-0.0742,-0.0742,0,0,-0.0342,-0.0357,-0.0363,-0.0371,-0.0373,-0.037,-0.0392,-0.0406,-0.0435,-0.0488,-0.0527,-0.0604,-0.0651,-0.0675,-0.0721,-0.0717,-0.0732,-0.0757,-0.0756,-0.0718,-0.0711,-0.0604,-0.0589,-0.076,-0.0759,-0.0759,-0.0686,0,-0.0334,-0.0332,-0.0342,-0.0345,-0.0342,-0.0373,-0.0388,-0.0411,-0.0451,-0.0496,-0.0535,-0.06,-0.0643,-0.0712,-0.071,-0.0741,-0.0725,-0.0751,-0.0702,-0.0699,-0.0595,-0.0581,-0.0758,-0.0683,-0.0682,-0.0681,-0.0681,0,-0.0325,-0.0325,-0.0319,-0.0347,-0.0349,-0.0356,-0.0395,-0.0422,-0.047,-0.052,-0.0574,-0.0618,-0.066,-0.0689,-0.0692,-0.0726,-0.073,-0.0718,-0.0715,-0.0595,-0.0584,-0.0659,-0.0672,-0.0673,-0.0673,-0.0674,-0.0674,0,-0.0305,-0.0321,-0.0313,-0.0326,-0.034,-0.0372,-0.0399,-0.0439,-0.0466,-0.0558,-0.0583,-0.0628,-0.0666,-0.0674,-0.0669,-0.0722,-0.0617,-0.0675,-0.0551,-0.0544,-0.0648,-0.0648,-0.064,-0.064,-0.0641,-0.0641,-0.0641,0,-0.0297,-0.031,-0.0317,-0.0325,-0.0336,-0.0372,-0.0399,-0.0461,-0.0509,-0.0511,-0.0612,-0.0585,-0.0674,-0.0626,-0.0639,-0.0549,-0.0588,-0.0531,-0.0511,-0.0665,-0.0668,-0.0644,-0.0645,-0.0638,-0.0639,-0.0639,-0.064,0,-0.0288,-0.0293,-0.0302,-0.0322,-0.0328,-0.0358,-0.0398,-0.0415,-0.0494,-0.0502,-0.0543,-0.0567,-0.053,-0.0526,-0.0505,-0.0486,-0.0425,-0.0372,-0.0492,-0.0483,-0.0384,-0.0388,-0.0282,-0.0278,-0.0274,-0.0271,-0.0268,0,-0.0281,-0.0282,-0.0289,-0.0285,-0.0303,-0.0335,-0.0337,-0.0414,-0.0415,-0.0438,-0.0413,-0.0408,-0.041,-0.0264,-0.0286,-0.0256,-0.0253,-0.0238,-0.0367,-0.0352,-0.0344,-0.0355,-0.0364,-0.0262,-0.0261,-0.026,-0.0259,0,-0.0282,-0.0291,-0.0286,-0.0258,-0.0262,-0.0248,-0.0267,-0.0259,-0.0319,-0.0369,-0.0303,-0.029,-0.0201,-0.0186,-0.0141,-0.0119,-0.0275,-0.0199,-0.0211,-0.0333,-0.0327,-0.0325,-0.0338,-0.0246,-0.0248,-0.0249,-0.025,0,-0.0287,-0.0283,-0.0262,-0.0239,-0.0215,-0.0167,-0.0186,-0.0161,-0.0174,-0.0225,-0.0158,-0.0143,-0.0155,-0.01,-0.0032,-0.0026,-0.008,-0.0128,-0.0144,-0.0159,-0.0153,-0.013,0.0052,0,0,0,0,0,-0.0282,-0.0268,-0.024,-0.0193,-0.0149,-0.013,-0.0119,-0.0134,-0.0164,-0.0113,-0.016,-0.0084,-0.0041,0.0003,0.0024,0.0021,-0.0073,0.0048,-0.0136,-0.0172,-0.0188,-0.0192,0,0,0,0,0,0,-0.0284,-0.0265,-0.0236,-0.014,-0.0087,-0.0031,-0.0022,-0.0042,-0.0015,-0.0058,-0.0019,-0.0068,-0.0006,-0.0051,0.0032,0.0036,-0.0076,0.0051,0.0052,-0.0163,-0.0177,-0.019,-0.02,0,0,0,0,0]},{"header":{"parameterUnit":"m.s-1","parameterCategory":2,"la1":30.2991,"la2":30.254,"lo1":-89.0895,"lo2":-89.0444,"dy":0.0017,"dx":0.0017,"nx":28,"ny":28,"refTime":"2024-06-30T03:00:00:Z","depth":"4","parameterNumber":3,"parameterNumberName":"V-component_of_CURRENTS"},"data":[0,0,0,0,0,0,0,0,0,0,0,0,0,0,0,0,0,0,0,0,0,0,0,0,0,0,0,0,0,0,0,0,0,0,0,0,0,0,0,0,0,0,0,0,0,0,0,0,0,0,0,0,0,0,0,0,0,0,-0.0145,-0.0145,0,-0.0221,-0.0222,-0.0223,-0.0281,-0.0281,-0.0281,-0.0282,-0.0363,-0.0365,-0.0366,0,0,0,0,0,0,0,0,0,0,0,0,0,-0.0048,-0.0049,-0.0145,-0.0145,-0.0146,-0.022,-0.0222,-0.0223,-0.0281,-0.0281,-0.0282,-0.0282,-0.0362,-0.0364,-0.0367,0,0,0,0,0,0,0,0,0,0,0,0,0,-0.0105,-0.005,-0.0144,-0.0182,-0.0186,-0.022,-0.0222,-0.0223,-0.0281,-0.0281,-0.0282,-0.0282,-0.0362,-0.0364,-0.0367,-0.0373,0,0,-0.0375,-0.0376,0,0,0,0,0,0,0,0,-0.0102,-0.0109,-0.0176,-0.018,-0.0184,-0.024,-0.0217,-0.0273,-0.028,-0.0247,-0.0282,-0.0282,-0.032,-0.0327,-0.0343,-0.0377,-0.0381,-0.0376,-0.0377,-0.0378,-0.0379,0,0,0,0,0,0,0,-0.0098,-0.0106,-0.0177,-0.0177,-0.0182,-0.0195,-0.0204,-0.0228,-0.0282,-0.025,-0.0254,-0.0259,-0.0323,-0.034,-0.0345,-0.0382,-0.0375,-0.0378,-0.038,-0.0381,-0.0477,-0.0478,0,0,0,0,0,0,-0.0084,-0.0102,-0.0174,-0.0179,-0.0141,-0.0196,-0.0206,-0.0223,-0.0281,-0.029,-0.0258,-0.0261,-0.0335,-0.0342,-0.0348,-0.0419,-0.0378,-0.0381,-0.0383,-0.0476,-0.0477,-0.0478,0,0,0,0,0,0,-0.0082,-0.009,-0.0171,-0.014,-0.0151,-0.0197,-0.0216,-0.0224,-0.0264,-0.0287,-0.0297,-0.0291,-0.0336,-0.0344,-0.0407,-0.042,-0.0382,-0.0385,-0.0475,-0.0477,-0.0478,-0.0521,0,0,0,0,0,0,-0.0079,-0.0089,-0.0102,-0.0139,-0.0152,-0.0211,-0.0215,-0.0225,-0.0264,-0.0269,-0.0318,-0.0325,-0.0337,-0.0403,-0.041,-0.0423,-0.0387,-0.0474,-0.0476,-0.0477,-0.0519,-0.0524,-0.0528,0,0,0,0,0,-0.0075,-0.0102,-0.0103,-0.0112,-0.0167,-0.0212,-0.0221,-0.0255,-0.0265,-0.0292,-0.0334,-0.0325,-0.0417,-0.0407,-0.0415,-0.0428,-0.0473,-0.0475,-0.0477,-0.0516,-0.0523,-0.0528,0,0,0,0,0,0,-0.0075,-0.0111,-0.0113,-0.0151,-0.0181,-0.0221,-0.0249,-0.0267,-0.032,-0.033,-0.0353,-0.0364,-0.0421,-0.042,-0.0408,-0.0459,-0.0437,-0.044,-0.0464,-0.047,-0.0475,-0.0456,-0.0389,0,0,0,0,0,-0.0075,-0.0102,-0.0134,-0.0164,-0.018,-0.0214,-0.0238,-0.0261,-0.0306,-0.0331,-0.0367,-0.0398,-0.043,-0.0449,-0.048,-0.0514,-0.0492,-0.0521,-0.0526,-0.0531,-0.052,-0.0507,-0.0509,-0.0485,-0.0485,-0.0485,0,0,-0.0082,-0.0104,-0.012,-0.0164,-0.0191,-0.0225,-0.0233,-0.0278,-0.031,-0.033,-0.0399,-0.0428,-0.0447,-0.0493,-0.0515,-0.0496,-0.0528,-0.0533,-0.0537,-0.0524,-0.0509,-0.0511,-0.0513,-0.0486,-0.0486,-0.0486,0,0,-0.0111,-0.0131,-0.0163,-0.019,-0.023,-0.0248,-0.0264,-0.0317,-0.0346,-0.041,-0.0428,-0.0466,-0.0525,-0.0534,-0.0545,-0.0591,-0.0562,-0.0599,-0.0603,-0.0591,-0.0592,-0.0593,-0.0575,-0.0573,-0.0591,-0.0592,-0.0592,0,-0.012,-0.0156,-0.018,-0.0216,-0.0236,-0.026,-0.0295,-0.033,-0.0398,-0.0423,-0.0439,-0.0514,-0.0537,-0.0566,-0.0587,-0.06,-0.0588,-0.0581,-0.0596,-0.0596,-0.0596,-0.0577,-0.0575,-0.0594,-0.0594,-0.0593,-0.0593,0,-0.0168,-0.0197,-0.0221,-0.0266,-0.0294,-0.0329,-0.0365,-0.0413,-0.0445,-0.047,-0.0526,-0.0557,-0.059,-0.0604,-0.0616,-0.0626,-0.0616,-0.0612,-0.0578,-0.0601,-0.058,-0.0577,-0.0597,-0.0596,-0.0596,-0.0595,0,0,-0.0195,-0.0242,-0.0254,-0.0267,-0.0318,-0.0346,-0.0404,-0.045,-0.0482,-0.0536,-0.0572,-0.062,-0.0621,-0.0631,-0.0637,-0.0628,-0.063,-0.0623,-0.0621,-0.06,-0.0601,-0.0587,-0.0582,-0.0631,-0.0631,-0.0631,-0.0588,0,-0.0224,-0.0271,-0.0299,-0.0346,-0.0366,-0.0406,-0.045,-0.0497,-0.0535,-0.0581,-0.0596,-0.0632,-0.0631,-0.0646,-0.0639,-0.0637,-0.0624,-0.0641,-0.0585,-0.0583,-0.0564,-0.0579,-0.063,-0.0585,-0.0585,-0.0584,-0.0584,0,-0.0264,-0.0284,-0.0323,-0.036,-0.0377,-0.0417,-0.0475,-0.0523,-0.0582,-0.0611,-0.0637,-0.0646,-0.065,-0.0646,-0.0621,-0.0634,-0.0618,-0.0608,-0.0606,-0.0571,-0.0564,-0.0556,-0.0578,-0.0579,-0.0579,-0.0579,-0.058,0,-0.0243,-0.0303,-0.0321,-0.0339,-0.0393,-0.0433,-0.0475,-0.0537,-0.0568,-0.0627,-0.0643,-0.0648,-0.0648,-0.063,-0.0609,-0.0617,-0.0576,-0.058,-0.0546,-0.0545,-0.0549,-0.0549,-0.0554,-0.0554,-0.0554,-0.0554,-0.0554,0,-0.0244,-0.0266,-0.0318,-0.033,-0.0369,-0.0422,-0.0473,-0.0527,-0.0582,-0.06,-0.0645,-0.0625,-0.0645,-0.0623,-0.0606,-0.0562,-0.0565,-0.0542,-0.0532,-0.0571,-0.0573,-0.0547,-0.0547,-0.0553,-0.0553,-0.0553,-0.0553,0,-0.0202,-0.024,-0.0268,-0.0331,-0.0357,-0.039,-0.0469,-0.0499,-0.0561,-0.0587,-0.06,-0.0609,-0.0575,-0.0585,-0.0552,-0.0549,-0.0517,-0.05,-0.0536,-0.0529,-0.0495,-0.0498,-0.0457,-0.0456,-0.0456,-0.0455,-0.0455,0,-0.0177,-0.0185,-0.0252,-0.0281,-0.0313,-0.0372,-0.0409,-0.0486,-0.0503,-0.0545,-0.0533,-0.053,-0.0529,-0.0468,-0.048,-0.0464,-0.0463,-0.0465,-0.0488,-0.049,-0.0485,-0.0489,-0.0492,-0.0453,-0.0453,-0.0453,-0.0453,0,-0.013,-0.0161,-0.0185,-0.0227,-0.0277,-0.0323,-0.0377,-0.0382,-0.0454,-0.0494,-0.0462,-0.0465,-0.0434,-0.0417,-0.043,-0.0408,-0.048,-0.0458,-0.0459,-0.048,-0.0485,-0.0481,-0.0486,-0.045,-0.0451,-0.0451,-0.0451,0,-0.0108,-0.0112,-0.0152,-0.0188,-0.0236,-0.0274,-0.031,-0.0331,-0.0361,-0.0412,-0.0371,-0.0382,-0.039,-0.0382,-0.0365,-0.0381,-0.0382,-0.04,-0.0404,-0.0408,-0.0419,-0.0419,-0.0348,0,0,0,0,0,-0.0092,-0.0099,-0.0115,-0.0172,-0.0203,-0.0237,-0.0285,-0.0318,-0.0363,-0.0332,-0.0368,-0.0335,-0.0341,-0.0321,-0.0328,-0.035,-0.0389,-0.036,-0.0413,-0.0436,-0.0439,-0.0461,0,0,0,0,0,0,-0.0098,-0.0106,-0.0104,-0.0138,-0.0164,-0.0209,-0.0241,-0.0276,-0.0259,-0.0297,-0.0276,-0.0329,-0.0307,-0.0324,-0.0317,-0.0324,-0.0359,-0.0372,-0.0373,-0.0435,-0.0437,-0.044,-0.0463,0,0,0,0,0]}]]